Location: Newark
(50.0306°N, 2.3272°E)
Time: 02:02:44
(UTC+00:00)

Transit 2A Rocket - Pass Details

Date: 15 December 2019
Orbit: 593 x 910 km, 66.7° (Epoch: 27 January)

Event Time Altitude Azimuth Distance (km) Brightness Sun altitude
Rises 17:51:01 0° 279° (W) 2,863 9.2 -18.4°
Reaches altitude 10° 17:54:25 10° 307° (NW) 1,940 7.6 -19.0°
Maximum altitude 17:56:33 13° 337° (NNW) 1,724 6.9 -19.3°
Enters shadow 17:58:31 11° 5° (N) 1,907 6.9 -19.6°
Drops below altitude 10° 17:58:41 10° 7° (N) 1,938 - -19.6°
Sets 18:02:05 0° 35° (NE) 2,860 - -20.2°
